Regional Weather Roundup
Issued by NWS

Home | Current Version | Previous Version | Text Only | Print | Product List | Glossary Off
Versions: 1 2 3 4 5 6 7 8 9 10 11 12 13 14 15 16 17 18 19 20 21 22 23 24 25 26 27 28 29 30 31 32 33 34 35 36 37 38 39 40 41 42 43 44 45 46 47 48 49 50

000
ASUS43 KMKX 220900
RWRWI

WISCONSIN REGIONAL WEATHER ROUNDUP
NATIONAL WEATHER SERVICE MILWAUKEE/SULLIVAN WI
400 AM CDT SAT JUL 22 2017

NOTE: "FAIR" INDICATES FEW OR NO CLOUDS BELOW 12,000 FEET WITH NO
SIGNIFICANT WEATHER AND/OR OBSTRUCTIONS TO VISIBILITY.

WIZ001-002-006>008-014>016-023>028-221000-
NORTHWEST WISCONSIN

CITY           SKY/WX    TMP DP  RH WIND       PRES   REMARKS
SUPERIOR ARPT  NOT AVBL
ASHLAND        CLOUDY    63  62  97 CALM      29.82S
HAYWARD        CLOUDY    65  63  93 CALM      29.82S
SIREN          CLOUDY    64  63  97 CALM      29.81R
CUMBERLAND     CLOUDY    63  61  94 NE3       29.80F
RICE LAKE      CLOUDY    63  62  97 NE3       29.81F
CHETEK         CLOUDY    63  63 100 NE7       29.80S
LADYSMITH      CLOUDY    65  64  96 W3        29.83R
EAU CLAIRE     NOT AVBL
MENOMONIE      PTCLDY    65  64  96 CALM      29.77F
NEW RICHMOND   PTCLDY    65  64  94 CALM      29.79F
OSCEOLA        CLOUDY    66  66 100 SE3       29.81S
$$

WIZ003>005-009-010-017-018-221000-
NORTH CENTRAL WISCONSIN

CITY           SKY/WX    TMP DP  RH WIND       PRES   REMARKS
MANITOWISH WTR CLOUDY    65  65 100 CALM      29.83R
ARBOR VITAE    CLOUDY    66  65  94 CALM      29.82R
WOODRUFF       CLOUDY    66  65  94 CALM      29.82R
RHINELANDER    PTCLDY    64  61  90 SE3       29.82F
EAGLE RIVER    PTCLDY    65  60  84 CALM      29.82S
LAND O LAKES   CLOUDY    63  62  96 CALM      29.85R
PHILLIPS       CLOUDY    64  64 100 CALM      29.80S
TOMAHAWK         N/A     63  62  96 CALM      29.82S FOG
MEDFORD        PTCLDY    64  64  97 CALM      29.81R FOG
MERRILL        CLOUDY    64  63  94 SE5       29.80F
$$

WIZ029-030-035-036-043>047-221000-
CENTRAL WISCONSIN

CITY           SKY/WX    TMP DP  RH WIND       PRES   REMARKS
WAUSAU         CLOUDY    65  64  97 E8        29.79F
MOSINEE        CLOUDY    64  64 100 E6        29.82F FOG
MARSHFIELD     CLOUDY    67  66  97 SE6       29.78F FOG
STEVENS POINT  CLOUDY    66  66 100 SE7       29.82R
WAUPACA        CLOUDY    67  65  93 CALM      29.81S
WAUTOMA        CLOUDY    66  64  93 CALM      29.80F
WISC RAPIDS    CLOUDY    68  67  96 S7        29.80F
CAMP DOUGLAS   CLOUDY    68  68 100 SE7       29.79S
$$

WIZ011>013-019>022-031-037>040-048>050-221000-
NORTHEAST WISCONSIN

CITY           SKY/WX    TMP DP  RH WIND       PRES   REMARKS
ANTIGO         MOCLDY    62  60  94 CALM      29.84S
SHAWANO        CLOUDY    69  62  81 S3        29.84R
OCONTO         CLOUDY    69  60  75 CALM      29.83R
STURGEON BAY     N/A     67  64  90 S5        29.82R
GREEN BAY      CLOUDY    68  62  81 SE5       29.80F
MANITOWOC      NOT AVBL
APPLETON       CLOUDY    66  54  63 SE13      29.79F
CLINTONVILLE   CLOUDY    68  61  77 CALM      29.83R
OSHKOSH        CLOUDY    66  61  84 SE5       29.78F
$$

WIZ032>034-041-042-053>061-221000-
SOUTHWEST WISCONSIN

CITY           SKY/WX    TMP DP  RH WIND       PRES   REMARKS
LA CROSSE      CLOUDY    73  70  90 S10       29.75F
SPARTA         CLOUDY    66  66  98 CALM      29.78F
VIROQUA        CLOUDY    68  68 100 SE7       29.78F VSB 3/4
BOSCOBEL       CLOUDY    71  69  93 CALM      29.78F FOG
PRAIRIE DU CHI CLOUDY    71  70  96 CALM      29.78R
PLATTEVILLE    CLOUDY    70  70 100 S12       29.81S
$$

WIZ056-057-062-063-064-067-068-221000-
SOUTH CENTRAL WISCONSIN

CITY           SKY/WX    TMP DP  RH WIND       PRES   REMARKS
REEDSBURG      FOG       65  65 100 CALM      29.79F VSB 1
BARABOO/DELLS  CLOUDY    65  64  95 E5        29.79F FOG
LONE ROCK      NOT AVBL
MINERAL POINT  CLOUDY    72  72 100 SE7       29.80F FOG
MADISON        CLOUDY    67  65  93 CALM      29.80S
MIDDLETON      CLOUDY    67  67 100 CALM      29.81F
WATERTOWN      CLOUDY    65  65 100 NE3       29.81S
MONROE         CLOUDY    68  66  94 SW9       29.84F
JANESVILLE     LGT RAIN  70  70 100 SW12      29.83R
$$

WIZ051-052-058>065-066-070>072-221000-
SOUTHEAST WISCONSIN

CITY           SKY/WX    TMP DP  RH WIND       PRES   REMARKS
MILWAUKEE      CLOUDY    69  68  96 N5        29.78F
WAUKESHA       CLOUDY    63  61  94 CALM      29.81F
MILWAUKEE/TIMM CLOUDY    64  61  88 N7        29.81F
RACINE         CLOUDY    71  71 100 SW6       29.80F FOG
KENOSHA        LGT RAIN  73  71  93 NW10      29.82R
FOND DU LAC    CLOUDY    65  60  84 S5        29.79F
SHEBOYGAN      CLOUDY    65  64  97 E5        29.80F
WEST BEND      CLOUDY    61  61 100 CALM      29.81F
JUNEAU         CLOUDY    64  62  92 E5        29.82F
$$

LSZ147-162-221000-
LAKE SUPERIOR

STATION/POSITION TIME  TEMP    WIND        PRES    WAVE
                       AIR SEA DIR/SP/G            HT/PER
                 (UTC) (F)     (DEG/KT/KT) (MB)    (FT/S)
W MID LAKE BUOY  0750   51 48   40/  8/ 10 1008.8F   1/ 3
DEVILS ISLAND    0800   58      90/ 12/ 13 1009.0R
SAXON HARBOR     0840   64     190/  3/  4 1009.1R
$$

LMZ867-665-643>646-221000-
LAKE MICHIGAN

STATION/POSITION TIME  TEMP    WIND        PRES    WAVE
                       AIR SEA DIR/SP/G            HT/PER
                 (UTC) (F)     (DEG/KT/KT) (MB)    (FT/S)
CHAMBERS ISLAND  0840   70     190/  4/ 11 1009.5R
S GREEN BAY BUOY 0830   70 73  190/ 10/ 12 1009.8F
N MID LAKE BUOY  0750   69 67  200/ 12/ 14 1010.5F   1/ 3
NORTHPORT PIER   0840   69      CALM  /  4 1010.5R
KEWAUNEE LAKESHO 0830   67     180/  6/  8 1009.3F
SHEBOYGAN LAKESH 0800   67      60/  3/  3 1009.9F
PORT WASHINGTON  0830   68      20/  5/  8 1010.2F
ATWATER BUOY     0709   67 67   70/  4/  6 1009.8F
MILWAUKEE LAKESH 0850   68     340/  7/  7   N/A
S MID LAKE BUOY  0750   72 70  150/ 12/ 16 1009.3F   2/ 4
KENOSHA   LAKESH 0800   71     170/  4/  6 1008.5
$$

TC  - TEMPERATURE IN CELSIUS
VSB - VISIBILITY IN STATUTE MILES
WCI - WIND CHILL INDEX
HX  - HEAT INDEX





USA.gov is the U.S. government's official web portal to all federal, state and local government web resources and services.